sat.trackr.live / text

‹ back to catalog

STARLINK-4058

NORAD 53266 · 2022-086AA

PAYLOAD ACTIVE UNKNOWN

§ Identity

Operator
Country
US
Launch date
2022-07-24
Launch site
AFETR
Launch vehicle
Mass (kg)
RCS (m²)

Purposes: comms

External: N2YO · Heavens-Above · Gunter

§ Orbital elements

Epoch: 2026-09-19T23:42:24.610176Z

Period
93.90 min
Inclination
53.1596°
Eccentricity
0.0001026
Mean motion
15.33542002 rev/d
Perigee alt
464.6 km
Apogee alt
466.0 km
Semi-major
6,843.4 km
B*
-3.4365e-6
RAAN
28.3679°
Arg perigee
101.2763°
Mean anomaly
258.8355°
Rev number
23,058

§ Raw data

STARLINK-40581 53266U 22086AA  26262.98778484 -.00000485  00000+0 -34365-5 0  99972 53266  53.1596  28.3679 0001026 101.2763 258.8355 15.33542002230586

JSON: /api/v1/satellites/53266 · /tle

For live sub-satellite position, see the globe view (requires WebGL).

§ Visibility from observer

Set your observer location to see the next 7 days of passes ≥ 10°. The values pass through the URL so the page stays shareable.

No JS? Fill the form by hand. The geolocation button needs JavaScript.